KKYDRYRI2 Weather Reports


Display with metric or nautical units.
time (UTC)temp
F
wind
direction
speed
MPH
gust
MPH
rain 1hr
in
rain 24hr
in
rain mn
in
humidity
%
barometer
mb
20260906030725 74 101 0.0 0.0 0.00 0.13 0.13 96 1013.1
20260906025742 74 101 0.0 0.0 0.00 0.13 0.13 96 1012.8
20260906024715 74 101 0.0 0.0 0.00 0.13 0.13 95 1012.8
20260906023716 75 101 0.0 0.0 0.00 0.13 0.13 95 1012.6
20260906022656 75 101 0.0 0.0 0.00 0.13 0.13 95 1012.6
20260906021712 75 101 0.0 1.0 0.00 0.13 0.13 94 1012.6
20260906020723 76 101 0.0 0.0 0.00 0.13 0.13 94 1012.7
20260906015727 76 101 0.0 1.0 0.00 0.13 0.13 93 1013.3
20260906014740 77 101 0.0 8.0 0.00 0.13 0.13 93 1013.1
20260906013804 77 108 1.0 8.0 0.05 0.13 0.13 92 1013.6
20260906012817 78 140 0.0 1.0 0.06 0.13 0.13 90 1012.7
20260906011754 78 140 1.0 9.0 0.00 0.12 0.12 89 1012.7
20260906010735 78 110 3.0 9.0 0.00 0.12 0.12 90 1012.7
20260906005702 78 136 2.0 7.0 0.00 0.12 0.12 90 1012.6
20260906004715 78 65 0.0 1.0 0.00 0.12 0.12 88 1012.1
20260906003739 79 27 0.0 1.0 0.00 0.12 0.12 89 1012.0
20260906002727 79 23 0.0 0.0 0.00 0.12 0.12 87 1011.6
20260906001714 79 23 0.0 0.0 0.00 0.12 0.12 86 1011.3
20260906000657 80 23 0.0 0.0 0.00 0.12 0.12 86 1011.4
20260905235713 80 23 0.0 0.0 0.00 0.12 0.12 85 1011.6
20260905234718 80 23 0.0 1.0 0.00 0.12 0.12 84 1011.8
20260905233719 80 23 0.0 0.0 0.00 0.12 0.12 84 1012.0
20260905232657 80 23 1.0 3.0 0.00 0.12 0.12 84 1012.2
20260905231625 81 26 1.0 4.0 0.00 0.12 0.12 84 1012.1
20260905230611 81 13 2.0 6.0 0.00 0.12 0.12 83 1012.1
20260905225636 81 24 2.0 6.0 0.00 0.12 0.12 82 1012.3
20260905224603 82 35 1.0 9.0 0.00 0.12 0.12 81 1012.4
20260905223547 83 26 2.0 9.0 0.00 0.12 0.12 80 1012.3
20260905222529 85 9 2.0 8.0 0.00 0.12 0.12 76 1012.2
20260905221517 87 5 2.0 6.0 0.00 0.12 0.12 72 1011.9
20260905220534 91 36 1.0 4.0 0.00 0.12 0.12 66 1011.9
20260905215501 93 145 1.0 8.0 0.00 0.12 0.12 63 1011.6
20260905213336 93 65 1.0 5.0 0.00 0.12 0.12 62 1011.5
20260905212347 93 119 2.0 6.0 0.00 0.12 0.12 63 1011.4
20260905211358 92 165 1.0 7.0 0.00 0.12 0.12 64 1011.3
20260905210418 92 126 2.0 7.0 0.00 0.12 0.12 62 1011.4
20260905204312 92 144 2.0 9.0 0.00 0.12 0.12 63 1011.6
20260905203304 93 132 2.0 6.0 0.00 0.12 0.12 62 1011.6
20260905202255 92 105 2.0 8.0 0.00 0.12 0.12 62 1011.8
20260905201246 92 70 2.0 8.0 0.00 0.12 0.12 61 1011.9
20260905200221 92 101 2.0 7.0 0.00 0.12 0.12 61 1012.1
20260905195228 91 355 2.0 9.0 0.00 0.12 0.12 61 1012.3
20260905194229 91 0 3.0 9.0 0.00 0.12 0.12 61 1012.4
20260905193201 91 51 1.0 5.0 0.00 0.12 0.12 61 1012.7
20260905192135 91 99 2.0 8.0 0.00 0.12 0.12 63 1012.7
20260905190041 91 149 1.0 5.0 0.00 0.12 0.12 63 1013.0
20260905185021 90 96 1.0 6.0 0.00 0.12 0.12 63 1013.2
20260905184019 90 65 1.0 7.0 0.00 0.12 0.12 64 1013.4
20260905181949 89 338 2.0 8.0 0.00 0.12 0.12 66 1013.5
20260905180953 89 16 1.0 8.0 0.00 0.12 0.12 69 1013.4
20260905180001 88 57 2.0 8.0 0.00 0.12 0.12 70 1013.5
20260905175024 87 111 2.0 5.0 0.00 0.12 0.12 69 1013.6
20260905174005 87 17 1.0 9.0 0.00 0.12 0.12 72 1013.6
20260905172958 86 350 2.0 9.0 0.00 0.12 0.12 71 1013.7
20260905171937 86 0 1.0 5.0 0.00 0.12 0.12 72 1013.8
20260905170912 85 17 1.0 5.0 0.00 0.12 0.12 73 1014.1
20260905165920 84 42 2.0 4.0 0.00 0.12 0.12 72 1014.1
20260905164854 84 49 1.0 7.0 0.00 0.12 0.12 74 1014.2
20260905162721 83 89 1.0 4.0 0.00 0.12 0.12 76 1014.2
20260905155431 80 5 3.0 9.0 0.00 0.12 0.12 78 1014.1
20260905154414 80 351 3.0 9.0 0.00 0.12 0.12 78 1014.2
20260905153420 79 342 3.0 8.0 0.00 0.12 0.12 80 1014.3
20260905152347 79 355 3.0 9.0 0.00 0.12 0.12 81 1014.3
20260905151352 78 0 2.0 9.0 0.00 0.12 0.12 83 1014.2
20260905150320 77 355 2.0 8.0 0.00 0.12 0.12 83 1014.1
20260905145306 76 9 2.0 7.0 0.00 0.12 0.12 86 1014.2
20260905144242 75 13 0.0 7.0 0.00 0.12 0.12 89 1014.5
20260905143300 74 355 2.0 7.0 0.00 0.12 0.12 90 1014.5
20260905142229 73 351 2.0 5.0 0.00 0.12 0.12 93 1014.7
20260905141201 72 15 0.0 3.0 0.00 0.12 0.12 97 1014.8
20260905140148 72 15 0.0 1.0 0.00 0.12 0.12 97 1015.1
20260905135144 71 12 0.0 0.0 0.00 0.12 0.12 97 1015.1
20260905134138 71 11 0.0 0.0 0.00 0.12 0.12 97 1015.2
20260905133148 71 11 0.0 0.0 0.00 0.12 0.12 97 1015.5
20260905132117 71 11 0.0 0.0 0.00 0.12 0.12 97 1015.8
20260905131115 70 9 0.0 0.0 0.00 0.12 0.12 96 1015.8
20260905130121 70 9 0.0 0.0 0.00 0.12 0.12 96 1016.2
20260905125142 70 9 0.0 0.0 0.00 0.12 0.12 95 1016.6
20260905124139 71 0 2.0 7.0 0.00 0.12 0.12 94 1017.1
20260905123158 71 14 0.0 3.0 0.00 0.12 0.12 95 1017.0
20260905121011 71 355 7.0 13.0 0.09 0.12 0.12 93 1016.9
20260905115950 72 355 0.0 6.0 0.98 0.06 0.09 92 1016.9
20260905114925 73 355 0.0 4.0 0.05 0.02 0.02 90 1016.6
20260905113907 74 38 1.0 7.0 0.09 0.01 0.02 89 1016.7
20260905112909 75 119 3.0 13.0 0.00 0.00 0.00 87 1016.8
20260905111930 76 140 4.0 13.0 0.00 0.00 0.00 86 1015.7
20260905110908 77 123 4.0 10.0 0.00 0.00 0.00 88 1015.9
20260905105905 77 151 0.0 6.0 0.00 0.00 0.00 88 1014.6
20260905104917 77 104 1.0 4.0 0.00 0.00 0.00 88 1013.8
20260905103908 77 96 1.0 4.0 0.00 0.00 0.00 89 1013.4
20260905102928 77 105 1.0 7.0 0.00 0.00 0.00 91 1013.0
20260905100746 75 128 0.0 0.0 0.00 0.00 0.00 97 1013.1
20260905095725 74 128 0.0 1.0 0.00 0.00 0.00 96 1013.3
20260905094711 75 128 0.0 1.0 0.00 0.00 0.00 96 1013.3
20260905093639 75 128 0.0 1.0 0.00 0.00 0.00 96 1013.2
20260905092623 75 128 0.0 0.0 0.00 0.00 0.00 96 1013.2
20260905091550 75 128 0.0 0.0 0.00 0.00 0.00 96 1013.1
20260905090548 75 128 0.0 0.0 0.00 0.00 0.00 96 1013.3
20260905085531 75 128 0.0 0.0 0.00 0.00 0.00 96 1013.3
20260905084526 75 128 0.0 0.0 0.00 0.00 0.00 96 1013.2
20260905083529 75 128 0.0 1.0 0.00 0.00 0.00 95 1013.1
20260905082528 75 128 0.0 1.0 0.00 0.00 0.00 95 1013.0
20260905081506 75 128 0.0 1.0 0.00 0.00 0.00 96 1012.8
20260905080523 75 128 0.0 0.0 0.00 0.00 0.00 96 1012.8
20260905075507 75 128 0.0 1.0 0.00 0.00 0.00 96 1012.7
20260905073418 75 128 0.0 0.0 0.00 0.00 0.00 96 1012.7
20260905072441 75 128 0.0 0.0 0.00 0.00 0.00 96 1012.7
20260905071415 75 128 0.0 0.0 0.00 0.00 0.00 96 1012.8
20260905065245 75 128 0.0 0.0 0.00 0.00 0.00 96 1013.2
20260905064310 75 128 0.0 0.0 0.00 0.00 0.00 96 1013.4
20260905063326 75 128 0.0 1.0 0.00 0.00 0.00 96 1013.4
20260905062323 75 128 0.0 0.0 0.00 0.00 0.00 96 1013.6
20260905061346 76 128 0.0 0.0 0.00 0.00 0.00 96 1013.6
20260905060331 76 128 0.0 0.0 0.00 0.00 0.00 96 1013.8
20260905051825 76 128 0.0 1.0 0.00 0.00 0.00 95 1014.3
20260905045635 76 128 0.0 1.0 0.00 0.00 0.00 95 1014.5
20260905044659 76 128 0.0 0.0 0.00 0.00 0.00 95 1014.5
20260905043703 76 128 0.0 0.0 0.00 0.00 0.00 94 1014.4
20260905042653 76 128 0.0 1.0 0.00 0.00 0.00 94 1014.5
20260905041649 76 128 0.0 1.0 0.00 0.00 0.00 94 1014.5
20260905040630 76 128 0.0 0.0 0.00 0.00 0.00 94 1014.5
20260905035639 76 128 0.0 1.0 0.00 0.00 0.00 94 1014.4
20260905034632 76 128 0.0 0.0 0.00 0.00 0.00 94 1014.6
20260905033558 76 128 0.0 1.0 0.00 0.00 0.00 94 1014.6
20260905032558 76 128 0.0 0.0 0.00 0.00 0.00 93 1014.5